Location: Hohenfelde
(53.8441°N, 9.6220°E)
Time: 11:47:02
(UTC+00:00)

Cosmos 1943 - Pass Details

Date: 14 July 2020
Orbit: 835 x 848 km, 71.0° (Epoch: 09 August)

Event Time Altitude Azimuth Distance (km) Brightness Sun altitude
Exits shadow 00:19:43 - 242° (WSW) 2,883 5.6 -13.7°
Reaches altitude 10° 00:20:54 10° 247° (WSW) 2,466 5.3 -13.6°
Maximum altitude 00:26:12 39° 316° (NW) 1,239 4.4 -13.5°
Drops below altitude 10° 00:31:30 10° 25° (NNE) 2,468 7.0 -13.3°
Sets 00:34:07 0° 33° (NNE) 3,404 7.9 -13.2°
